This demonstration page uses our WeatherBlox Daily Observations layout. Learn more.

Left ArrowRight Arrow

Hourly Observations for April 28, 2017

Temp ( °F °C ) Dew Point ( °F °C ) Humidity (%) Winds ( mph kmh ) Pressure ( in mb ) Visibility ( mi km ) Precip ( " mm )
12:53 am 00:53 Clear 51 10.6 37 2.8 59 59 NW 6 9 30.05 1018 10 16 0.00 0.00
1:53 am 01:53 Clear 50 10 37 2.8 61 61 NW 6 9 30.06 1018 10 16 0.00 0.00
2:53 am 02:53 Clear 51 10.6 35 1.7 54 54 NW 6 9 30.06 1018 10 16 0.00 0.00
3:53 am 03:53 Clear 50 10 35 1.7 57 57 NW 5 7 30.06 1018 10 16 0.00 0.00
4:53 am 04:53 Clear 47 8.3 36 2.2 66 66 NNW 5 7 30.07 1018 10 16 0.00 0.00
5:53 am 05:53 Clear 49 9.4 34 1.1 56 56 NW 8 13 30.07 1018 10 16 0.00 0.00
6:53 am 06:53 Sunny 49 9.4 35 1.7 59 59 NW 6 9 30.10 1019 10 16 0.00 0.00
7:53 am 07:53 Sunny 54 12.2 33 0.6 45 45 N 10 17 30.12 1020 10 16 0.00 0.00
8:53 am 08:53 Sunny 58 14.4 30 -1.1 35 35 N 21 33 30.13 1020 10 16 0.00 0.00
9:53 am 09:53 Sunny 60 15.6 30 -1.1 32 32 N 21 33 30.13 1020 10 16 0.00 0.00
10:53 am 10:53 Sunny 63 17.2 29 -1.7 28 28 NNE 16 26 30.13 1020 10 16 0.00 0.00
11:53 am 11:53 Sunny 65 18.3 31 -0.6 28 28 NNE 7 11 30.13 1020 10 16 0.00 0.00
12:53 pm 12:53 Sunny 67 19.4 31 -0.6 26 26 NNW 12 19 30.11 1020 10 16 0.00 0.00
1:53 pm 13:53 Sunny 69 20.6 29 -1.7 22 22 N 8 13 30.09 1019 10 16 0.00 0.00
2:53 pm 14:53 Sunny 72 22.2 25 -3.9 17 17 NNE 21 33 30.08 1019 10 16 0.00 0.00
3:53 pm 15:53 Sunny 73 22.8 26 -3.3 17 17 NNE 12 19 30.06 1018 10 16 0.00 0.00
4:53 pm 16:53 Sunny 73 22.8 23 -5 15 15 VRB 6 9 30.05 1018 10 16 0.00 0.00
5:53 pm 17:53 Sunny 73 22.8 26 -3.3 17 17 N 8 13 30.05 1018 10 16 0.00 0.00
6:53 pm 18:53 Sunny 72 22.2 27 -2.8 19 19 N 7 11 30.05 1018 10 16 0.00 0.00
7:53 pm 19:53 Sunny 68 20 30 -1.1 24 24 N 5 7 30.06 1018 10 16 0.00 0.00
8:53 pm 20:53 Clear 63 17.2 32 0 31 31 NNW 6 9 30.08 1019 10 16 0.00 0.00
9:53 pm 21:53 Clear 58 14.4 35 1.7 42 42 NNW 6 9 30.10 1019 10 16 0.00 0.00
10:53 pm 22:53 Clear 56 13.3 35 1.7 46 46 N 6 9 30.11 1020 10 16 0.00 0.00
11:53 pm 23:53 Clear 55 12.8 34 1.1 45 45 N 7 11 30.12 1020 10 16 0.00 0.00

Powered by AerisWeather